Regional Weather Roundup
Issued by NWS Charleston, SC

Home | Current Version | Previous Version | Text Only | Print | Product List | Glossary On
Versions: 1 2 3 4 5 6 7 8 9 10 11 12 13 14 15 16 17 18 19 20 21 22 23 24 25 26 27 28 29 30 31 32 33 34 35 36 37 38 39 40 41 42 43 44 45 46 47 48 49 50
000
ASUS42 KCHS 190325
RWRCHS

REGIONAL WEATHER ROUNDUP
NATIONAL WEATHER SERVICE CHARLESTON SC
1000 PM EST THU DEC 18 2014

NOTE: "FAIR" INDICATES FEW OR NO CLOUDS BELOW 12,000 FEET WITH NO
SIGNIFICANT WEATHER AND/OR OBSTRUCTIONS TO VISIBILITY.

NOT ALL STATIONS ARE QUALITY CONTROLLED BY THE NATIONAL
WEATHER SERVICE. USE DATA WITH CAUTION...ESPECIALLY
DEWPOINT OBSERVATIONS.

SCZ027-030-031-034>040-042>050-190400-
...SOUTHEAST SOUTH CAROLINA...

CITY           SKY/WX    TMP DP  RH WIND       PRES   REMARKS
N CHARLESTON   PTCLDY    48  45  89 CALM      30.11S
WATERFRONT PRK   N/A     52 N/A N/A CALM        N/A
MOUNT PLEASANT FAIR      45  45 100 CALM      30.11S
PINOPOLIS        N/A     52  46  82 CALM      30.02R
MONCKS CORNER  FAIR      45  43  93 CALM      30.11S
SUMMERVILLE    NOT AVBL
BEAUFORT MCAS  PTCLDY    49  46  90 CALM      30.11S
BEAUFORT ARPT  FAIR      46  46 100 CALM      30.11R
HILTON HEAD IS PTCLDY    46  46 100 CALM      30.13R
WALTERBORO     PTCLDY    45 N/A N/A CALM      30.11R
ALLENDALE      FAIR      45  43  93 CALM      30.10S

...SOUTHERN MIDLANDS AND PEE DEE...

CITY           SKY/WX    TMP DP  RH WIND       PRES   REMARKS
GEORGETOWN     NOT AVBL
KINGSTREE      NOT AVBL
ORANGEBURG     CLEAR     43  39  86 CALM      30.11R
BARNWELL         N/A     41  39  93 CALM      30.12R
AIKEN          FAIR      41  41 100 CALM      30.13S
MANNING        NOT AVBL
COLUMBIA       PTCLDY    46  38  73 W3        30.10S
SUMTER         CLOUDY    45  38  76 CALM      30.10R
FLORENCE       CLOUDY    41  34  76 CALM      30.11R
MYRTLE BEACH   CLEAR     41  37  87 CALM      30.12S
N MYRTLE BEACH CLEAR     40  37  89 CALM      30.10S

$$

GAZ063-065-086>088-099>101-113>116-118-119-134>141-150-190400-
...SOUTHEAST GEORGIA...

CITY           SKY/WX    TMP DP  RH WIND       PRES   REMARKS
SAVANNAH ARPT  MOCLDY    46  40  79 CALM      30.13R
HUNTER AAF     PTCLDY    45  43  93 W2        30.10S
FORT STEWART   PTCLDY    45  41  85 CALM      30.11R
STATESBORO     PTCLDY    43  43 100 CALM      30.12R
SYLVANIA       PTCLDY    46  44  93 CALM      30.12R
CLAXTON        FAIR      41  41 100 CALM      30.13R

...CSRA...CENTRAL AND FAR SOUTHEAST GEORGIA...

CITY           SKY/WX    TMP DP  RH WIND       PRES   REMARKS
THOMSON        PTCLDY    44  42  92 CALM      30.16R
AUGUSTA-BUSH   PTCLDY    42  38  85 CALM      30.11S
AUGUSTA-DANIEL PTCLDY    53  37  54 W3        30.11S
SWAINSBORO     FAIR      43  43 100 CALM      30.13R
VIDALIA        MOCLDY    45  41  87 CALM      30.13R
EASTMAN        FAIR      42  42 100 CALM      30.16R
HAZLEHURST     FAIR      47  42  81 CALM      30.12S
ALMA           PTCLDY    45  41  86 CALM      30.13R
WAYCROSS       MOCLDY    49  46  89 CALM      30.14R
JESUP          FAIR      45  43  93 CALM      30.13S
BAXLEY         FAIR      46  43  87 CALM      30.12F
BRUNSWICK      PTCLDY    48  45  87 CALM      30.14R
SAINT SIMONS   PTCLDY    52  44  74 W3        30.12S

$$

SCZ027-028-034-036>038-045-046-048>050-GAZ119-141-190400-
...LAKE AND SUPPLEMENTAL COASTAL OBSERVATIONS...

STATION/POSITION TIME  TEMP    WIND        PRES    WAVE   SWELL
                       AIR SEA DIR/SP/G            HT/PER HT/PER/DIR
                 (UTC) (F)     (DEG/KT/KT) (MB)    (FT/S) (FT/S/D)
UPR LAKE MARION  NOT AVBL
WINYAH BAY       0300   42     300/  1     1019.0R
LAKE MURRAY      0300   51      CALM  /  2 1018.6S
ACE BASIN NERRS  0300   45        CALM     1019.0S
FORT PULASKI     0300   52 56  230/  3/  3 1020.2R
SAPELO ISLAND    0300   50        CALM     1020.0R

$$

ANZ835-935-AMZ111-154-330-350-352-354-370-450-454-472-190400-
...C-MAN AND BUOY OBSERVATIONS...

STATION/POSITION TIME  TEMP    WIND        PRES    WAVE   SWELL
                       AIR SEA DIR/SP/G            HT/PER HT/PER/DIR
                 (UTC) (F)     (DEG/KT/KT) (MB)    (FT/S) (FT/S/D)
BUOY 41004       0300   62 72  320/  6/  8 1019.0R   2/ 5   2/ 5
BUOY 41008       0300   57 57  260/  6/  6 1019.8F   1/10
FOLLY BEACH CMAN 0300   51     280/  2/  2 1019.8F
CAPERS NEARSHORE 0200   54      30/  4/  6   N/A
FRIPP NEARSHORE  NOT AVBL


STATION/POSITION TIME  TEMP    WIND        PRES    WAVE   SWELL
                       AIR SEA DIR/SP/G            HT/PER HT/PER/DIR
                 (UTC) (F)     (DEG/KT/KT) (MB)    (FT/S) (FT/S/D)
5E ST. MARYS GA  0200      61                N/A     1/11
FRYING PAN BUOY  0300   57 64   30/  4/  6 1019.8F   2/10   2/150/10
BUOY 41025       0300   46                 1019.8R   3/ 7
CAPE LOOKOUT NC  0300   47      20/  6/  6 1019.2S
BUOY 41002       0202   68 72  340/  2/  4 1018.1S   3/10   3/ 90/10
BUOY 41010       0300   70 76  300/  6/  8 1019.5R   2/10   2/ 90/10
ST AUGUSTINE FL  0300   55     270/  5/  5 1020.7R


$$



USA.gov is the U.S. government's official web portal to all federal, state and local government web resources and services.